Regional Weather Roundup
Issued by NWS Portland, ME

Current Version | Previous Version | Text Only | Print | Product List | Glossary Off
Versions: 1 2 3 4 5 6 7 8 9 10 11 12 13 14 15 16 17 18 19 20 21 22 23 24 25 26 27 28 29 30 31 32 33 34 35 36 37 38 39 40 41 42 43 44 45 46 47 48 49 50
000 ASUS41 KGYX 220610 RWRGYX WEATHER ROUNDUP FOR MAINE AND NEW HAMPSHIRE NATIONAL WEATHER SERVICE GRAY ME 200 AM EDT TUE AUG 22 2017 MEZ002-005-006-010-012-015-018-020-021-024-026-027-029-220700- MAINE CITY SKY/WX TMP DP RH WIND PRES REMARKS PORTLAND CLEAR 65 61 87 CALM 30.02F 6HR MIN TEMP: 65; 6HR MAX TEMP: 75; SANFORD CLEAR 59 58 96 CALM 30.04S BAR HARBOR CLEAR 61 59 93 SW3 30.01F WISCASSET CLEAR 62 60 93 CALM 30.03F 6HR MIN TEMP: 61; 6HR MAX TEMP: 72; ROCKLAND CLEAR 60 59 96 W5 30.01F FRYEBURG CLEAR 63 61 93 W6 30.02F 6HR MIN TEMP: 63; 6HR MAX TEMP: 74; LEWISTONAUBURN CLEAR 62 61 96 CALM 30.03F AUGUSTA CLEAR 67 62 84 CALM 30.02F 6HR MIN TEMP: 65; 6HR MAX TEMP: 74; WATERVILLE CLEAR 64 63 96 SW3 29.99S BANGOR PTCLDY 65 62 90 SW3 30.00S 6HR MIN TEMP: 65; 6HR MAX TEMP: 77; GREENVILLE N/A 64 59 83 CALM 30.01S 6HR MIN TEMP: 63; 6HR MAX TEMP: 71; MILLINOCKET PTCLDY 62 59 90 CALM 30.00R 6HR MIN TEMP: 61; 6HR MAX TEMP: 70; HOULTON PTCLDY 66 60 81 S6 29.95S 6HR MIN TEMP: 62; 6HR MAX TEMP: 69; PRESQUE ISLE CLOUDY 68 61 78 W7 29.95S 6HR MIN TEMP: 68; 6HR MAX TEMP: 75; FRENCHVILLE CLOUDY 66 60 81 W12 29.93S 6HR MIN TEMP: 65; 6HR MAX TEMP: 71; CARIBOU MOCLDY 68 61 78 W6 29.92F 6HR MIN TEMP: 67; 6HR MAX TEMP: 73; 6HR PCP: TRACE; $$ NHZ002-005-008-009-011-012-014-220700- NEW HAMPSHIRE CITY SKY/WX TMP DP RH WIND PRES REMARKS PORTSMOUTH CLEAR 68 64 85 W5 30.02F ROCHESTER CLEAR 65 60 84 CALM 30.04S 6HR MIN TEMP: 64; 6HR MAX TEMP: 75; NASHUA CLEAR 67 65 93 CALM 30.05F MANCHESTER CLEAR 70 62 76 S3 30.04S 6HR MIN TEMP: 70; 6HR MAX TEMP: 79; CONCORD CLEAR 62 60 93 CALM 30.05F 6HR MIN TEMP: 61; 6HR MAX TEMP: 73; LACONIA CLEAR 65 62 90 CALM 30.05F PLYMOUTH FAIR 57 56 96 CALM 30.05F FOG BERLIN PTCLDY 56 53 90 CALM 30.04F FOG 6HR MIN TEMP: 55; 6HR MAX TEMP: 68; WHITEFIELD CLEAR 57 54 89 CALM 30.05F 6HR MIN TEMP: 57; 6HR MAX TEMP: 71; JAFFREY CLEAR 65 65 100 CALM 30.09F 6HR MIN TEMP: 65; 6HR MAX TEMP: 70; KEENE N/A N/A N/A N/A MISG N/A LEBANON PTCLDY 60 59 96 CALM 30.04F FOG 6HR MIN TEMP: 60; 6HR MAX TEMP: 72; MT WASHINGTON FOG 52 52 100 W26 N/A VSB 1/16 6HR MIN TEMP: 50; 6HR MAX TEMP: 52; $$ VTZ005-007-008-220700- VERMONT CITY SKY/WX TMP DP RH WIND PRES REMARKS ST JOHNSBURY N/A 61 61 100 MISG 30.02F MONTPELIER CLEAR 61 61 100 CALM 30.08F BURLINGTON CLEAR 73 65 75 S6 30.00F $$ MAZ007-012-024-CTZ003-RIZ002-NYZ038-NYZ072-220700- SOUTHERN NEW ENGLAND AND NY CITY SKY/WX TMP DP RH WIND PRES REMARKS BOSTON CLEAR 74 64 71 SW10 30.04F WORCESTER CLEAR 67 63 87 SW10 30.08F NANTUCKET CLEAR 68 68 100 SW8 30.10F PROVIDENCE CLEAR 72 68 87 S5 30.08S HARTFORD PTCLDY 71 67 87 S6 30.07S ALBANY PTCLDY 73 68 84 S6 30.04S NEW YORK CITY PTCLDY 78 71 79 SW9 30.07F $$ ANZ081-ANZ082-ANZ150-NHZ014-MEZ023>029-220700- COASTAL MARINE OBSERVATIONS STATION/POSITION TIME TEMP WIND PRES WAVE AIR SEA DIR/SP/G HT/PER (UTC) (F) (DEG/KT/KT) (MB) (FT/S) MOUNT DESERT ROC 0600 61 1016.5F MATINICUS ROCK 0500 67 240/ 19/ 19 1016.1R ISLE OF SHOALS 0500 72 240/ 12/ 12 1016.7F JEFFREYS LEDGE 0506 66 N/A 2/14 CASHES LEDGE BUO 0550 71 69 1016.8S 2/ 3 GEORGES BANK BUO 0450 67 65 1019.2 2/ 7 $$ .............KEY.............. WCI - WIND CHILL TC - TEMPERATURE IN CELSIUS VSB - VISIBILITY IN MILES HX - HEAT INDEX FAIR- INDICATES FEW OR NO CLOUDS BELOW 12,000 FT, WITH NO SIGNIFICANT WEATHER AND/OR OBSTRUCTIONS TO VISIBILITY.

USA.gov is the U.S. government's official web portal to all federal, state and local government web resources and services.